EDT,Max TemperatureF,Mean TemperatureF,Min TemperatureF,Max Dew PointF,MeanDew PointF,Min DewpointF,Max Humidity, Mean Humidity, Min Humidity, Max Sea Level PressureIn, Mean Sea Level PressureIn, Min Sea Level PressureIn, Max VisibilityMiles, Mean VisibilityMiles, Min VisibilityMiles, Max Wind SpeedMPH, Mean Wind SpeedMPH, Max Gust SpeedMPH,PrecipitationIn, CloudCover, Events, WindDirDegrees
2013-10-1,73,57,41,49,46,39,100,69,38,29.98,29.90,29.78,10,9,2,8,2,13,0.00,0,,328
2013-10-2,73,60,47,57,48,41,93,62,31,29.78,29.70,29.61,10,10,4,20,7,28,0.00,1,,249
2013-10-3,65,56,47,42,41,40,71,56,40,29.97,29.90,29.79,10,10,10,20,7,28,0.00,0,,281
2013-10-4,59,50,40,41,36,29,77,57,36,30.10,30.04,29.96,10,10,10,18,8,24,0.00,0,,316
2013-10-5,59,47,35,40,34,29,92,66,40,30.20,30.12,30.07,10,10,10,15,6,18,0.00,1,,315
2013-10-6,57,44,31,38,33,29,85,62,38,30.30,30.24,30.19,10,10,10,13,4,16,T,1,Rain,166
2013-10-7,65,54,43,63,51,37,100,86,71,30.20,29.92,29.65,10,7,1,30,17,43,0.90,8,Rain,180
2013-10-8,56,48,39,55,40,32,89,65,41,30.33,30.01,29.68,10,10,2,20,8,30,T,4,Rain,262
2013-10-9,62,48,33,40,37,32,96,70,43,30.45,30.37,30.28,10,10,10,13,5,16,0.00,0,,223
2013-10-10,72,56,39,47,43,37,92,67,41,30.27,30.21,30.15,10,10,10,12,4,15,0.00,0,,225
2013-10-11,72,57,41,54,48,41,96,73,49,30.27,30.20,30.16,10,10,6,10,3,14,0.00,1,,5
2013-10-12,58,48,37,45,42,37,96,79,61,30.43,30.38,30.27,10,8,1,9,3,12,0.00,5,,66
2013-10-13,59,47,34,45,38,33,100,77,53,30.47,30.41,30.32,10,6,0,7,1,10,0.00,2,Fog,160
2013-10-14,53,45,37,52,46,37,100,92,83,30.32,30.25,30.18,10,6,0,8,3,12,0.01,7,Fog-Rain,191
2013-10-15,60,51,41,52,42,36,100,70,40,30.31,30.25,30.20,10,10,6,10,3,15,0.00,2,,336
2013-10-16,57,48,39,52,47,35,93,85,77,30.22,30.06,29.89,10,9,2,18,7,24,0.00,7,,152
2013-10-17,65,56,47,55,51,45,100,78,56,29.88,29.75,29.68,10,7,0,17,5,22,0.12,7,Fog-Rain,197
2013-10-18,56,50,43,50,47,42,100,89,77,29.70,29.63,29.58,10,8,2,9,3,13,0.33,6,Rain,246
2013-10-19,59,50,41,45,40,36,92,68,43,29.83,29.76,29.66,10,10,10,18,7,24,T,1,,240
2013-10-20,52,46,40,47,41,31,93,73,53,29.78,29.66,29.59,10,8,2,23,7,29,0.35,7,Rain,202
2013-10-21,54,44,34,37,34,31,82,66,50,29.98,29.92,29.80,10,10,10,12,4,17,T,4,Rain,251
2013-10-22,54,46,38,49,43,36,96,89,82,29.95,29.76,29.62,10,10,4,26,8,45,0.22,8,Rain,182
2013-10-23,47,40,32,34,31,28,92,75,58,29.70,29.64,29.54,10,10,2,17,6,23,0.00,4,,242
2013-10-24,41,36,30,31,26,23,89,70,50,30.41,30.28,29.51,10,10,10,24,10,32,T,7,,243
2013-10-25,47,39,30,32,30,26,85,67,49,30.41,30.26,29.62,10,10,10,17,7,25,T,4,,250
2013-10-26,44,36,27,34,28,22,92,68,43,30.00,29.92,29.81,10,10,8,15,7,23,0.02,6,Rain,204
2013-10-27,45,41,36,37,35,33,92,84,76,29.84,29.76,29.69,10,10,10,14,6,23,0.02,8,Rain,214
2013-10-28,38,32,26,34,30,22,96,83,70,30.28,29.98,29.84,10,6,0,14,6,20,0.18,5,Fog-Rain-Snow,294
2013-10-29,35,29,22,26,22,19,96,80,63,30.39,30.35,30.29,10,10,9,12,5,15,T,4,,256
2013-10-30,41,31,21,25,21,18,92,70,48,30.31,30.19,30.09,10,10,10,16,5,22,0.00,3,,236
2013-10-31,51,38,25,48,33,22,93,75,57,30.17,29.96,29.65,10,9,5,16,8,22,0.39,5,Rain,192